Location: Artiguedieu
(43.5000°N, 0.5454°E)
Time: 12:20:41
(UTC+00:00)

H-2A R/B - Pass Details

Date: 06 December 2020
Orbit: 499 x 540 km, 97.3° (Epoch: 22 January)

Event Time Altitude Azimuth Distance (km) Brightness Sun altitude
Rises 06:09:38 0° 4° (N) 2,697 6.2 -11.7°
Reaches altitude 10° 06:11:53 10° 356° (N) 1,796 5.2 -11.4°
Maximum altitude 06:15:27 37° 289° (WNW) 843 3.2 -10.8°
Drops below altitude 10° 06:18:58 10° 221° (SW) 1,761 5.2 -10.2°
Sets 06:21:09 0° 213° (SSW) 2,637 6.2 -9.8°
